Year,Month,Day,Hour,Minute,Value (Times are PST for temperature in C)
2009,08,01,00,00,15.20
2009,08,01,00,01,15.30
2009,08,01,00,02,15.30
2009,08,01,00,03,15.30
2009,08,01,00,04,15.30
2009,08,01,00,05,15.40
2009,08,01,00,06,15.40
2009,08,01,00,07,15.40
2009,08,01,00,08,15.50
2009,08,01,00,09,15.50
2009,08,01,00,10,15.50
2009,08,01,00,11,15.50
2009,08,01,00,12,15.50
2009,08,01,00,13,15.50
2009,08,01,00,14,15.50
2009,08,01,00,15,15.50
2009,08,01,00,16,15.50
2009,08,01,00,17,15.50
2009,08,01,00,18,15.50
2009,08,01,00,19,15.50
2009,08,01,00,20,15.50
2009,08,01,00,21,15.50
2009,08,01,00,22,15.50
2009,08,01,00,23,15.50
2009,08,01,00,24,15.50
2009,08,01,00,25,15.50
2009,08,01,00,26,15.40
2009,08,01,00,27,15.50
2009,08,01,00,28,15.50
2009,08,01,00,29,15.50
2009,08,01,00,30,15.50
2009,08,01,00,31,15.50
2009,08,01,00,32,15.50
2009,08,01,00,33,15.50
2009,08,01,00,34,15.40
2009,08,01,00,35,15.30
2009,08,01,00,36,15.10
2009,08,01,00,37,15.00
2009,08,01,00,38,14.90
2009,08,01,00,39,14.80
2009,08,01,00,40,14.80
2009,08,01,00,41,14.80
2009,08,01,00,42,14.70
2009,08,01,00,43,14.60
2009,08,01,00,44,14.50
2009,08,01,00,45,14.40
2009,08,01,00,46,14.30
2009,08,01,00,47,14.30
2009,08,01,00,48,14.20
2009,08,01,00,49,14.20
2009,08,01,00,50,14.10
2009,08,01,00,51,14.10
2009,08,01,00,52,14.10
2009,08,01,00,53,14.00
2009,08,01,00,54,14.00
2009,08,01,00,55,14.00
2009,08,01,00,56,13.90
2009,08,01,00,57,13.90
2009,08,01,00,58,13.80
2009,08,01,00,59,13.80
2009,08,01,01,00,13.70
2009,08,01,01,01,13.70
2009,08,01,01,02,13.70
2009,08,01,01,03,13.70
2009,08,01,01,04,13.70
2009,08,01,01,05,13.70
2009,08,01,01,06,13.70
2009,08,01,01,07,13.70
2009,08,01,01,08,13.70
2009,08,01,01,09,13.70
2009,08,01,01,10,13.70
2009,08,01,01,11,13.60
2009,08,01,01,12,13.60
2009,08,01,01,13,13.60
2009,08,01,01,14,13.60
2009,08,01,01,15,13.60
2009,08,01,01,16,13.60
2009,08,01,01,17,13.60
2009,08,01,01,18,13.60
2009,08,01,01,19,13.50
2009,08,01,01,20,13.50
2009,08,01,01,21,13.50
2009,08,01,01,22,13.50
2009,08,01,01,23,13.50
2009,08,01,01,24,13.40
2009,08,01,01,25,13.30
2009,08,01,01,26,13.30
2009,08,01,01,27,13.30
2009,08,01,01,28,13.30
2009,08,01,01,29,13.20
2009,08,01,01,30,13.20
2009,08,01,01,31,13.20
2009,08,01,01,32,13.20
2009,08,01,01,33,13.10
2009,08,01,01,34,13.10
2009,08,01,01,35,13.10
2009,08,01,01,36,13.10
2009,08,01,01,37,13.10
2009,08,01,01,38,13.00
2009,08,01,01,39,13.00
2009,08,01,01,40,12.90
2009,08,01,01,41,12.90
2009,08,01,01,42,12.90
2009,08,01,01,43,12.90
2009,08,01,01,44,12.90
2009,08,01,01,45,12.90
2009,08,01,01,46,12.90
2009,08,01,01,47,12.90
2009,08,01,01,48,12.90
2009,08,01,01,49,12.90
2009,08,01,01,50,12.90
2009,08,01,01,51,12.90
2009,08,01,01,52,12.90
2009,08,01,01,53,13.00
2009,08,01,01,54,13.00
2009,08,01,01,55,13.00
2009,08,01,01,56,13.00
2009,08,01,01,57,13.00
2009,08,01,01,58,13.00
2009,08,01,01,59,13.00
2009,08,01,02,00,13.00
2009,08,01,02,01,13.00
2009,08,01,02,02,13.00
2009,08,01,02,03,13.00
2009,08,01,02,04,13.00
2009,08,01,02,05,13.00
2009,08,01,02,06,13.10
2009,08,01,02,07,13.10
2009,08,01,02,08,13.10
2009,08,01,02,09,13.10
2009,08,01,02,10,13.10
2009,08,01,02,11,13.10
2009,08,01,02,12,13.10
2009,08,01,02,13,13.20
2009,08,01,02,14,13.20
2009,08,01,02,15,13.10
2009,08,01,02,16,13.10
2009,08,01,02,17,13.10
2009,08,01,02,18,13.10
2009,08,01,02,19,13.10
2009,08,01,02,20,13.10
2009,08,01,02,21,13.10
2009,08,01,02,22,13.10
2009,08,01,02,23,13.10
2009,08,01,02,24,13.10
2009,08,01,02,25,13.10
2009,08,01,02,26,13.10
2009,08,01,02,27,13.10
2009,08,01,02,28,13.10
2009,08,01,02,29,13.10
2009,08,01,02,30,13.10
2009,08,01,02,31,13.10
2009,08,01,02,32,13.10
2009,08,01,02,33,13.10
2009,08,01,02,34,13.10
2009,08,01,02,35,13.00
2009,08,01,02,36,13.00
2009,08,01,02,37,13.10
2009,08,01,02,38,13.00
2009,08,01,02,39,13.00
2009,08,01,02,40,13.00
2009,08,01,02,41,13.00
2009,08,01,02,42,12.90
2009,08,01,02,43,12.90
2009,08,01,02,44,12.90
2009,08,01,02,45,12.80
2009,08,01,02,46,12.80
2009,08,01,02,47,12.80
2009,08,01,02,48,12.80
2009,08,01,02,49,12.80
2009,08,01,02,50,12.80
2009,08,01,02,51,12.70
2009,08,01,02,52,12.70
2009,08,01,02,53,12.70
2009,08,01,02,54,12.60
2009,08,01,02,55,12.60
2009,08,01,02,56,12.60
2009,08,01,02,57,12.60
2009,08,01,02,58,12.50
2009,08,01,02,59,12.50
2009,08,01,03,00,12.50
2009,08,01,03,01,12.50
2009,08,01,03,02,12.50
2009,08,01,03,03,12.50
2009,08,01,03,04,12.50
2009,08,01,03,05,12.50
2009,08,01,03,06,12.50
2009,08,01,03,07,12.40
2009,08,01,03,08,12.40
2009,08,01,03,09,12.40
2009,08,01,03,10,12.40
2009,08,01,03,11,12.40
2009,08,01,03,12,12.40
2009,08,01,03,13,12.40
2009,08,01,03,14,12.40
2009,08,01,03,15,12.40
2009,08,01,03,16,12.50
2009,08,01,03,17,12.50
2009,08,01,03,18,12.50
2009,08,01,03,19,12.40
2009,08,01,03,20,12.40
2009,08,01,03,21,12.40
2009,08,01,03,22,12.40
2009,08,01,03,23,12.40
2009,08,01,03,24,12.40
2009,08,01,03,25,12.40
2009,08,01,03,26,12.40
2009,08,01,03,27,12.30
2009,08,01,03,28,12.30
2009,08,01,03,29,12.30
2009,08,01,03,30,12.30
2009,08,01,03,31,12.30
2009,08,01,03,32,12.30
2009,08,01,03,33,12.30
2009,08,01,03,34,12.30
2009,08,01,03,35,12.30
2009,08,01,03,36,12.30
2009,08,01,03,37,12.30
2009,08,01,03,38,12.30
2009,08,01,03,39,12.30
2009,08,01,03,40,12.30
2009,08,01,03,41,12.30
2009,08,01,03,42,12.30
2009,08,01,03,43,12.30
2009,08,01,03,44,12.30
2009,08,01,03,45,12.30
2009,08,01,03,46,12.30
2009,08,01,03,47,12.40
2009,08,01,03,48,12.40
2009,08,01,03,49,12.40
2009,08,01,03,50,12.40
2009,08,01,03,51,12.40
2009,08,01,03,52,12.40
2009,08,01,03,53,12.50
2009,08,01,03,54,12.50
2009,08,01,03,55,12.50
2009,08,01,03,56,12.50
2009,08,01,03,57,12.50
2009,08,01,03,58,12.50
2009,08,01,03,59,12.50
2009,08,01,04,00,12.50
2009,08,01,04,01,12.50
2009,08,01,04,02,12.50
2009,08,01,04,03,12.60
2009,08,01,04,04,12.50
2009,08,01,04,05,12.50
2009,08,01,04,06,12.50
2009,08,01,04,07,12.50
2009,08,01,04,08,12.50
2009,08,01,04,09,12.60
2009,08,01,04,10,12.60
2009,08,01,04,11,12.60
2009,08,01,04,12,12.60
2009,08,01,04,13,12.60
2009,08,01,04,14,12.60
2009,08,01,04,15,12.60
2009,08,01,04,16,12.60
2009,08,01,04,17,12.60
2009,08,01,04,18,12.60
2009,08,01,04,19,12.60
2009,08,01,04,20,12.60
2009,08,01,04,21,12.60
2009,08,01,04,22,12.70
2009,08,01,04,23,12.70
2009,08,01,04,24,12.60
2009,08,01,04,25,12.60
2009,08,01,04,26,12.70
2009,08,01,04,27,12.70
2009,08,01,04,28,12.70
2009,08,01,04,29,12.70
2009,08,01,04,30,12.70
2009,08,01,04,31,12.70
2009,08,01,04,32,12.80
2009,08,01,04,33,12.80
2009,08,01,04,34,12.80
2009,08,01,04,35,12.80
2009,08,01,04,36,12.80
2009,08,01,04,37,12.80
2009,08,01,04,38,12.80
2009,08,01,04,39,12.80
2009,08,01,04,40,12.80
2009,08,01,04,41,12.80
2009,08,01,04,42,12.80
2009,08,01,04,43,12.80
2009,08,01,04,44,12.80
2009,08,01,04,45,12.80
2009,08,01,04,46,12.90
2009,08,01,04,47,12.90
2009,08,01,04,48,12.90
2009,08,01,04,49,12.90
2009,08,01,04,50,13.00
2009,08,01,04,51,13.00
2009,08,01,04,52,13.00
2009,08,01,04,53,13.00
2009,08,01,04,54,13.10
2009,08,01,04,55,13.10
2009,08,01,04,56,13.10
2009,08,01,04,57,13.10
2009,08,01,04,58,13.10
2009,08,01,04,59,13.10
2009,08,01,05,00,13.20
2009,08,01,05,01,13.20
2009,08,01,05,02,13.20
2009,08,01,05,03,13.20
2009,08,01,05,04,13.20
2009,08,01,05,05,13.20
2009,08,01,05,06,13.20
2009,08,01,05,07,13.30
2009,08,01,05,08,13.30
2009,08,01,05,09,13.30
2009,08,01,05,10,13.30
2009,08,01,05,11,13.30
2009,08,01,05,12,13.30
2009,08,01,05,13,13.30
2009,08,01,05,14,13.30
2009,08,01,05,15,13.30
2009,08,01,05,16,13.30
2009,08,01,05,17,13.30
2009,08,01,05,18,13.30
2009,08,01,05,19,13.20
2009,08,01,05,20,13.20
2009,08,01,05,21,13.20
2009,08,01,05,22,13.20
2009,08,01,05,23,13.20
2009,08,01,05,24,13.20
2009,08,01,05,25,13.20
2009,08,01,05,26,13.20
2009,08,01,05,27,13.20
2009,08,01,05,28,13.20
2009,08,01,05,29,13.20
2009,08,01,05,30,13.20
2009,08,01,05,31,13.20
2009,08,01,05,32,13.20
2009,08,01,05,33,13.20
2009,08,01,05,34,13.20
2009,08,01,05,35,13.30
2009,08,01,05,36,13.30
2009,08,01,05,37,13.30
2009,08,01,05,38,13.30
2009,08,01,05,39,13.30
2009,08,01,05,40,13.30
2009,08,01,05,41,13.20
2009,08,01,05,42,13.20
2009,08,01,05,43,13.20
2009,08,01,05,44,13.20
2009,08,01,05,45,13.20
2009,08,01,05,46,13.20
2009,08,01,05,47,13.20
2009,08,01,05,48,13.20
2009,08,01,05,49,13.20
2009,08,01,05,50,13.20
2009,08,01,05,51,13.20
2009,08,01,05,52,13.20
2009,08,01,05,53,13.20
2009,08,01,05,54,13.20
2009,08,01,05,55,13.20
2009,08,01,05,56,13.20
2009,08,01,05,57,13.20
2009,08,01,05,58,13.20
2009,08,01,05,59,13.20
2009,08,01,06,00,13.20
2009,08,01,06,01,13.20
2009,08,01,06,02,13.20
2009,08,01,06,03,13.10
2009,08,01,06,04,13.10
2009,08,01,06,05,13.10
2009,08,01,06,06,13.10
2009,08,01,06,07,13.10
2009,08,01,06,08,13.10
2009,08,01,06,09,13.10
2009,08,01,06,10,13.10
2009,08,01,06,11,13.10
2009,08,01,06,12,13.10
2009,08,01,06,13,13.10
2009,08,01,06,14,13.10
2009,08,01,06,15,13.10
2009,08,01,06,16,13.10
2009,08,01,06,17,13.10
2009,08,01,06,18,13.10
2009,08,01,06,19,13.10
2009,08,01,06,20,13.10
2009,08,01,06,21,13.10
2009,08,01,06,22,13.10
2009,08,01,06,23,13.10
2009,08,01,06,24,13.10
2009,08,01,06,25,13.10
2009,08,01,06,26,13.10
2009,08,01,06,27,13.10
2009,08,01,06,28,13.10
2009,08,01,06,29,13.10
2009,08,01,06,30,13.10
2009,08,01,06,31,13.20
2009,08,01,06,32,13.20
2009,08,01,06,33,13.20
2009,08,01,06,34,13.20
2009,08,01,06,35,13.20
2009,08,01,06,36,13.30
2009,08,01,06,37,13.30
2009,08,01,06,38,13.30
2009,08,01,06,39,13.30
2009,08,01,06,40,13.30
2009,08,01,06,41,13.30
2009,08,01,06,42,13.40
2009,08,01,06,43,13.50
2009,08,01,06,44,13.50
2009,08,01,06,45,13.60
2009,08,01,06,46,13.70
2009,08,01,06,47,13.70
2009,08,01,06,48,13.70
2009,08,01,06,49,13.80
2009,08,01,06,50,13.80
2009,08,01,06,51,13.90
2009,08,01,06,52,13.90
2009,08,01,06,53,14.00
2009,08,01,06,54,14.00
2009,08,01,06,55,14.10
2009,08,01,06,56,14.10
2009,08,01,06,57,14.20
2009,08,01,06,58,14.20
2009,08,01,06,59,14.20
2009,08,01,07,00,14.20
2009,08,01,07,01,14.20
2009,08,01,07,02,14.20
2009,08,01,07,03,14.20
2009,08,01,07,04,14.30
2009,08,01,07,05,14.40
2009,08,01,07,06,14.40
2009,08,01,07,07,14.40
2009,08,01,07,08,14.50
2009,08,01,07,09,14.50
2009,08,01,07,10,14.60
2009,08,01,07,11,14.60
2009,08,01,07,12,14.60
2009,08,01,07,13,14.70
2009,08,01,07,14,14.70
2009,08,01,07,15,14.80
2009,08,01,07,16,14.80
2009,08,01,07,17,14.90
2009,08,01,07,18,14.90
2009,08,01,07,19,15.00
2009,08,01,07,20,15.00
2009,08,01,07,21,15.10
2009,08,01,07,22,15.10
2009,08,01,07,23,15.10
2009,08,01,07,24,15.10
2009,08,01,07,25,15.20
2009,08,01,07,26,15.20
2009,08,01,07,27,15.20
2009,08,01,07,28,15.30
2009,08,01,07,29,15.40
2009,08,01,07,30,15.50
2009,08,01,07,31,15.60
2009,08,01,07,32,15.60
2009,08,01,07,33,15.70
2009,08,01,07,34,15.70
2009,08,01,07,35,15.80
2009,08,01,07,36,15.80
2009,08,01,07,37,15.80
2009,08,01,07,38,15.90
2009,08,01,07,39,15.90
2009,08,01,07,40,15.90
2009,08,01,07,41,16.00
2009,08,01,07,42,16.10
2009,08,01,07,43,16.10
2009,08,01,07,44,16.10
2009,08,01,07,45,16.10
2009,08,01,07,46,16.10
2009,08,01,07,47,16.10
2009,08,01,07,48,16.10
2009,08,01,07,49,16.10
2009,08,01,07,50,16.10
2009,08,01,07,51,16.10
2009,08,01,07,52,16.10
2009,08,01,07,53,16.10
2009,08,01,07,54,16.20
2009,08,01,07,55,16.20
2009,08,01,07,56,16.20
2009,08,01,07,57,16.30
2009,08,01,07,58,16.30
2009,08,01,07,59,16.20
2009,08,01,08,00,16.20
2009,08,01,08,01,16.20
2009,08,01,08,02,16.20
2009,08,01,08,03,16.20
2009,08,01,08,04,16.20
2009,08,01,08,05,16.20
2009,08,01,08,06,16.20
2009,08,01,08,07,16.20
2009,08,01,08,08,16.20
2009,08,01,08,09,16.30
2009,08,01,08,10,16.30
2009,08,01,08,11,16.30
2009,08,01,08,12,16.30
2009,08,01,08,13,16.30
2009,08,01,08,14,16.30
2009,08,01,08,15,16.30
2009,08,01,08,16,16.30
2009,08,01,08,17,16.40
2009,08,01,08,18,16.40
2009,08,01,08,19,16.40
2009,08,01,08,20,16.40
2009,08,01,08,21,16.50
2009,08,01,08,22,16.60
2009,08,01,08,23,16.60
2009,08,01,08,24,16.60
2009,08,01,08,25,16.70
2009,08,01,08,26,16.70
2009,08,01,08,27,16.90
2009,08,01,08,28,16.90
2009,08,01,08,29,17.00
2009,08,01,08,30,17.10
2009,08,01,08,31,17.20
2009,08,01,08,32,17.20
2009,08,01,08,33,17.30
2009,08,01,08,34,17.30
2009,08,01,08,35,17.30
2009,08,01,08,36,17.30
2009,08,01,08,37,17.30
2009,08,01,08,38,17.30
2009,08,01,08,39,17.30
2009,08,01,08,40,17.30
2009,08,01,08,41,17.30
2009,08,01,08,42,17.30
2009,08,01,08,43,17.40
2009,08,01,08,44,17.40
2009,08,01,08,45,17.40
2009,08,01,08,46,17.40
2009,08,01,08,47,17.50
2009,08,01,08,48,17.50
2009,08,01,08,49,17.60
2009,08,01,08,50,17.60
2009,08,01,08,51,17.70
2009,08,01,08,52,17.70
2009,08,01,08,53,17.70
2009,08,01,08,54,17.70
2009,08,01,08,55,17.70
2009,08,01,08,56,17.80
2009,08,01,08,57,17.80
2009,08,01,08,58,17.90
2009,08,01,08,59,17.90
2009,08,01,09,00,18.00
2009,08,01,09,01,18.10
2009,08,01,09,02,17.90
2009,08,01,09,03,17.70
2009,08,01,09,04,17.40
2009,08,01,09,05,17.10
2009,08,01,09,06,16.90
2009,08,01,09,07,16.80
2009,08,01,09,08,16.80
2009,08,01,09,09,16.90
2009,08,01,09,10,16.90
2009,08,01,09,11,16.80
2009,08,01,09,12,16.80
2009,08,01,09,13,16.80
2009,08,01,09,14,16.80
2009,08,01,09,15,16.90
2009,08,01,09,16,16.90
2009,08,01,09,17,16.90
2009,08,01,09,18,16.90
2009,08,01,09,19,17.00
2009,08,01,09,20,17.10
2009,08,01,09,21,17.30
2009,08,01,09,22,17.40
2009,08,01,09,23,17.60
2009,08,01,09,24,17.70
2009,08,01,09,25,17.90
2009,08,01,09,26,18.00
2009,08,01,09,27,18.10
2009,08,01,09,28,18.20
2009,08,01,09,29,18.30
2009,08,01,09,30,18.40
2009,08,01,09,31,18.50
2009,08,01,09,32,18.60
2009,08,01,09,33,18.70
2009,08,01,09,34,18.80
2009,08,01,09,35,18.90
2009,08,01,09,36,18.90
2009,08,01,09,37,18.90
2009,08,01,09,38,19.00
2009,08,01,09,39,19.10
2009,08,01,09,40,19.10
2009,08,01,09,41,19.10
2009,08,01,09,42,18.90
2009,08,01,09,43,18.80
2009,08,01,09,44,18.80
2009,08,01,09,45,18.70
2009,08,01,09,46,18.70
2009,08,01,09,47,18.80
2009,08,01,09,48,18.70
2009,08,01,09,49,18.70
2009,08,01,09,50,18.70
2009,08,01,09,51,18.70
2009,08,01,09,52,18.70
2009,08,01,09,53,18.80
2009,08,01,09,54,18.80
2009,08,01,09,55,18.70
2009,08,01,09,56,18.60
2009,08,01,09,57,18.60
2009,08,01,09,58,18.70
2009,08,01,09,59,18.70
2009,08,01,10,00,18.80
2009,08,01,10,01,18.70
2009,08,01,10,02,18.70
2009,08,01,10,03,18.70
2009,08,01,10,04,18.80
2009,08,01,10,05,18.80
2009,08,01,10,06,18.80
2009,08,01,10,07,18.80
2009,08,01,10,08,18.60
2009,08,01,10,09,18.60
2009,08,01,10,10,18.70
2009,08,01,10,11,18.70
2009,08,01,10,12,18.50
2009,08,01,10,13,18.40
2009,08,01,10,14,18.30
2009,08,01,10,15,18.20
2009,08,01,10,16,18.20
2009,08,01,10,17,18.20
2009,08,01,10,18,18.10
2009,08,01,10,19,18.00
2009,08,01,10,20,18.10
2009,08,01,10,21,18.10
2009,08,01,10,22,18.10
2009,08,01,10,23,18.10
2009,08,01,10,24,18.10
2009,08,01,10,25,18.20
2009,08,01,10,26,18.20
2009,08,01,10,27,18.20
2009,08,01,10,28,18.20
2009,08,01,10,29,18.20
2009,08,01,10,30,18.10
2009,08,01,10,31,18.10
2009,08,01,10,32,18.10
2009,08,01,10,33,18.10
2009,08,01,10,34,17.90
2009,08,01,10,35,17.80
2009,08,01,10,36,17.70
2009,08,01,10,37,17.70
2009,08,01,10,38,17.70
2009,08,01,10,39,17.60
2009,08,01,10,40,17.70
2009,08,01,10,41,17.70
2009,08,01,10,42,17.70
2009,08,01,10,43,17.70
2009,08,01,10,44,17.80
2009,08,01,10,45,17.90
2009,08,01,10,46,17.90
2009,08,01,10,47,17.90
2009,08,01,10,48,18.00
2009,08,01,10,49,18.10
2009,08,01,10,50,18.10
2009,08,01,10,51,18.20
2009,08,01,10,52,18.30
2009,08,01,10,53,18.40
2009,08,01,10,54,18.50
2009,08,01,10,55,18.60
2009,08,01,10,56,18.70
2009,08,01,10,57,18.70
2009,08,01,10,58,18.80
2009,08,01,10,59,18.80
2009,08,01,11,00,18.70
2009,08,01,11,01,18.70
2009,08,01,11,02,18.80
2009,08,01,11,03,18.90
2009,08,01,11,04,19.00
2009,08,01,11,05,19.20
2009,08,01,11,06,19.30
2009,08,01,11,07,19.40
2009,08,01,11,08,19.40
2009,08,01,11,09,19.50
2009,08,01,11,10,19.60
2009,08,01,11,11,19.60
2009,08,01,11,12,19.60
2009,08,01,11,13,19.70
2009,08,01,11,14,19.80
2009,08,01,11,15,19.80
2009,08,01,11,16,19.90
2009,08,01,11,17,19.80
2009,08,01,11,18,19.60
2009,08,01,11,19,19.40
2009,08,01,11,20,19.20
2009,08,01,11,21,19.10
2009,08,01,11,22,19.10
2009,08,01,11,23,18.90
2009,08,01,11,24,18.80
2009,08,01,11,25,18.60
2009,08,01,11,26,18.60
2009,08,01,11,27,18.60
2009,08,01,11,28,18.60
2009,08,01,11,29,18.80
2009,08,01,11,30,18.80
2009,08,01,11,31,18.80
2009,08,01,11,32,18.70
2009,08,01,11,33,18.70
2009,08,01,11,34,18.70
2009,08,01,11,35,18.70
2009,08,01,11,36,18.70
2009,08,01,11,37,18.70
2009,08,01,11,38,18.60
2009,08,01,11,39,18.70
2009,08,01,11,40,18.70
2009,08,01,11,41,18.70
2009,08,01,11,42,18.90
2009,08,01,11,43,19.00
2009,08,01,11,44,19.10
2009,08,01,11,45,19.30
2009,08,01,11,46,19.40
2009,08,01,11,47,19.50
2009,08,01,11,48,19.60
2009,08,01,11,49,19.60
2009,08,01,11,50,19.60
2009,08,01,11,51,19.70
2009,08,01,11,52,19.80
2009,08,01,11,53,19.90
2009,08,01,11,54,19.90
2009,08,01,11,55,19.90
2009,08,01,11,56,19.90
2009,08,01,11,57,20.00
2009,08,01,11,58,20.10
2009,08,01,11,59,20.10
2009,08,01,12,00,20.20
2009,08,01,12,01,20.20
2009,08,01,12,02,20.30
2009,08,01,12,03,20.40
2009,08,01,12,04,20.40
2009,08,01,12,05,20.50
2009,08,01,12,06,20.60
2009,08,01,12,07,20.80
2009,08,01,12,08,20.80
2009,08,01,12,09,20.90
2009,08,01,12,10,20.90
2009,08,01,12,11,21.00
2009,08,01,12,12,21.20
2009,08,01,12,13,21.40
2009,08,01,12,14,21.50
2009,08,01,12,15,21.60
2009,08,01,12,16,21.60
2009,08,01,12,17,21.60
2009,08,01,12,18,21.70
2009,08,01,12,19,21.80
2009,08,01,12,20,21.90
2009,08,01,12,21,21.90
2009,08,01,12,22,22.00
2009,08,01,12,23,22.10
2009,08,01,12,24,22.40
2009,08,01,12,25,22.60
2009,08,01,12,26,22.70
2009,08,01,12,27,22.90
2009,08,01,12,28,23.00
2009,08,01,12,29,23.20
2009,08,01,12,30,23.30
2009,08,01,12,31,23.30
2009,08,01,12,32,23.10
2009,08,01,12,33,23.00
2009,08,01,12,34,22.90
2009,08,01,12,35,22.90
2009,08,01,12,36,22.90
2009,08,01,12,37,22.80
2009,08,01,12,38,22.80
2009,08,01,12,39,22.80
2009,08,01,12,40,22.80
2009,08,01,12,41,22.70
2009,08,01,12,42,22.60
2009,08,01,12,43,22.60
2009,08,01,12,44,22.70
2009,08,01,12,45,22.60
2009,08,01,12,46,22.50
2009,08,01,12,47,22.50
2009,08,01,12,48,22.30
2009,08,01,12,49,22.30
2009,08,01,12,50,22.20
2009,08,01,12,51,22.20
2009,08,01,12,52,22.20
2009,08,01,12,53,22.10
2009,08,01,12,54,22.00
2009,08,01,12,55,22.10
2009,08,01,12,56,22.20
2009,08,01,12,57,22.00
2009,08,01,12,58,21.80
2009,08,01,12,59,21.70
2009,08,01,13,00,21.50
2009,08,01,13,01,21.30
2009,08,01,13,02,21.30
2009,08,01,13,03,21.30
2009,08,01,13,04,21.30
2009,08,01,13,05,21.30
2009,08,01,13,06,21.20
2009,08,01,13,07,21.20
2009,08,01,13,08,21.30
2009,08,01,13,09,21.20
2009,08,01,13,10,21.20
2009,08,01,13,11,21.10
2009,08,01,13,12,21.00
2009,08,01,13,13,21.00
2009,08,01,13,14,21.00
2009,08,01,13,15,20.90
2009,08,01,13,16,20.90
2009,08,01,13,17,21.00
2009,08,01,13,18,21.10
2009,08,01,13,19,21.10
2009,08,01,13,20,21.20
2009,08,01,13,21,21.40
2009,08,01,13,22,21.70
2009,08,01,13,23,22.00
2009,08,01,13,24,22.20
2009,08,01,13,25,22.20
2009,08,01,13,26,22.20
2009,08,01,13,27,22.20
2009,08,01,13,28,22.30
2009,08,01,13,29,22.30
2009,08,01,13,30,22.20
2009,08,01,13,31,22.20
2009,08,01,13,32,22.20
2009,08,01,13,33,22.30
2009,08,01,13,34,22.30
2009,08,01,13,35,22.30
2009,08,01,13,36,22.30
2009,08,01,13,37,22.30
2009,08,01,13,38,22.40
2009,08,01,13,39,22.30
2009,08,01,13,40,22.30
2009,08,01,13,41,22.30
2009,08,01,13,42,22.30
2009,08,01,13,43,22.30
2009,08,01,13,44,22.30
2009,08,01,13,45,22.30
2009,08,01,13,46,22.20
2009,08,01,13,47,22.10
2009,08,01,13,48,22.10
2009,08,01,13,49,22.10
2009,08,01,13,50,22.20
2009,08,01,13,51,22.30
2009,08,01,13,52,22.40
2009,08,01,13,53,22.60
2009,08,01,13,54,22.90
2009,08,01,13,55,23.20
2009,08,01,13,56,23.40
2009,08,01,13,57,23.70
2009,08,01,13,58,23.70
2009,08,01,13,59,23.60
2009,08,01,14,00,23.70
2009,08,01,14,01,23.70
2009,08,01,14,02,23.70
2009,08,01,14,03,23.70
2009,08,01,14,04,23.80
2009,08,01,14,05,23.90
2009,08,01,14,06,24.00
2009,08,01,14,07,24.10
2009,08,01,14,08,24.10
2009,08,01,14,09,24.10
2009,08,01,14,10,24.10
2009,08,01,14,11,24.10
2009,08,01,14,12,24.20
2009,08,01,14,13,24.40
2009,08,01,14,14,24.40
2009,08,01,14,15,24.40
2009,08,01,14,16,24.40
2009,08,01,14,17,24.30
2009,08,01,14,18,24.50
2009,08,01,14,19,24.60
2009,08,01,14,20,24.60
2009,08,01,14,21,24.50
2009,08,01,14,22,24.40
2009,08,01,14,23,24.50
2009,08,01,14,24,24.60
2009,08,01,14,25,24.80
2009,08,01,14,26,24.90
2009,08,01,14,27,25.10
2009,08,01,14,28,25.10
2009,08,01,14,29,25.10
2009,08,01,14,30,25.30
2009,08,01,14,31,25.50
2009,08,01,14,32,25.70
2009,08,01,14,33,25.70
2009,08,01,14,34,25.70
2009,08,01,14,35,25.80
2009,08,01,14,36,25.70
2009,08,01,14,37,25.70
2009,08,01,14,38,25.70
2009,08,01,14,39,25.90
2009,08,01,14,40,26.00
2009,08,01,14,41,26.10
2009,08,01,14,42,26.20
2009,08,01,14,43,26.20
2009,08,01,14,44,26.00
2009,08,01,14,45,25.90
2009,08,01,14,46,25.90
2009,08,01,14,47,25.90
2009,08,01,14,48,25.80
2009,08,01,14,49,25.70
2009,08,01,14,50,25.70
2009,08,01,14,51,25.70
2009,08,01,14,52,25.80
2009,08,01,14,53,25.90
2009,08,01,14,54,26.00
2009,08,01,14,55,26.00
2009,08,01,14,56,26.00
2009,08,01,14,57,26.00
2009,08,01,14,58,26.00
2009,08,01,14,59,26.00
2009,08,01,15,00,26.10
2009,08,01,15,01,26.00
2009,08,01,15,02,26.10
2009,08,01,15,03,26.10
2009,08,01,15,04,26.20
2009,08,01,15,05,26.30
2009,08,01,15,06,26.50
2009,08,01,15,07,26.60
2009,08,01,15,08,26.80
2009,08,01,15,09,26.80
2009,08,01,15,10,26.80
2009,08,01,15,11,26.80
2009,08,01,15,12,26.80
2009,08,01,15,13,26.80
2009,08,01,15,14,26.80
2009,08,01,15,15,26.80
2009,08,01,15,16,26.70
2009,08,01,15,17,26.80
2009,08,01,15,18,26.80
2009,08,01,15,19,26.90
2009,08,01,15,20,27.00
2009,08,01,15,21,27.10
2009,08,01,15,22,27.20
2009,08,01,15,23,27.30
2009,08,01,15,24,27.50
2009,08,01,15,25,27.70
2009,08,01,15,26,27.60
2009,08,01,15,27,27.40
2009,08,01,15,28,27.50
2009,08,01,15,29,27.60
2009,08,01,15,30,27.70
2009,08,01,15,31,27.90
2009,08,01,15,32,28.10
2009,08,01,15,33,28.20
2009,08,01,15,34,28.30
2009,08,01,15,35,28.40
2009,08,01,15,36,28.50
2009,08,01,15,37,28.60
2009,08,01,15,38,28.60
2009,08,01,15,39,28.70
2009,08,01,15,40,28.80
2009,08,01,15,41,28.90
2009,08,01,15,42,28.90
2009,08,01,15,43,29.10
2009,08,01,15,44,29.00
2009,08,01,15,45,28.80
2009,08,01,15,46,28.60
2009,08,01,15,47,28.50
2009,08,01,15,48,28.40
2009,08,01,15,49,28.50
2009,08,01,15,50,28.60
2009,08,01,15,51,28.70
2009,08,01,15,52,28.80
2009,08,01,15,53,28.90
2009,08,01,15,54,29.00
2009,08,01,15,55,29.10
2009,08,01,15,56,29.20
2009,08,01,15,57,29.30
2009,08,01,15,58,29.30
2009,08,01,15,59,29.30
2009,08,01,16,00,29.30
2009,08,01,16,01,29.30
2009,08,01,16,02,29.30
2009,08,01,16,03,29.30
2009,08,01,16,04,29.30
2009,08,01,16,05,29.30
2009,08,01,16,06,29.30
2009,08,01,16,07,29.30
2009,08,01,16,08,29.40
2009,08,01,16,09,29.50
2009,08,01,16,10,29.40
2009,08,01,16,11,29.40
2009,08,01,16,12,29.50
2009,08,01,16,13,29.60
2009,08,01,16,14,29.80
2009,08,01,16,15,29.80
2009,08,01,16,16,29.90
2009,08,01,16,17,29.90
2009,08,01,16,18,29.80
2009,08,01,16,19,29.60
2009,08,01,16,20,29.30
2009,08,01,16,21,29.20
2009,08,01,16,22,29.10
2009,08,01,16,23,29.10
2009,08,01,16,24,29.10
2009,08,01,16,25,29.10
2009,08,01,16,26,29.10
2009,08,01,16,27,29.20
2009,08,01,16,28,29.30
2009,08,01,16,29,29.40
2009,08,01,16,30,29.50
2009,08,01,16,31,29.50
2009,08,01,16,32,29.50
2009,08,01,16,33,29.50
2009,08,01,16,34,29.40
2009,08,01,16,35,29.30
2009,08,01,16,36,29.10
2009,08,01,16,37,28.90
2009,08,01,16,38,28.80
2009,08,01,16,39,28.70
2009,08,01,16,40,28.70
2009,08,01,16,41,28.80
2009,08,01,16,42,28.90
2009,08,01,16,43,29.00
2009,08,01,16,44,29.10
2009,08,01,16,45,29.20
2009,08,01,16,46,29.40
2009,08,01,16,47,29.30
2009,08,01,16,48,29.30
2009,08,01,16,49,29.30
2009,08,01,16,50,29.30
2009,08,01,16,51,29.30
2009,08,01,16,52,29.30
2009,08,01,16,53,29.30
2009,08,01,16,54,29.30
2009,08,01,16,55,29.40
2009,08,01,16,56,29.20
2009,08,01,16,57,29.00
2009,08,01,16,58,28.80
2009,08,01,16,59,28.50
2009,08,01,17,00,28.40
2009,08,01,17,01,28.30
2009,08,01,17,02,28.20
2009,08,01,17,03,28.20
2009,08,01,17,04,28.30
2009,08,01,17,05,28.30
2009,08,01,17,06,28.40
2009,08,01,17,07,28.40
2009,08,01,17,08,28.40
2009,08,01,17,09,28.50
2009,08,01,17,10,28.60
2009,08,01,17,11,28.70
2009,08,01,17,12,28.90
2009,08,01,17,13,29.00
2009,08,01,17,14,29.20
2009,08,01,17,15,29.40
2009,08,01,17,16,29.60
2009,08,01,17,17,29.80
2009,08,01,17,18,29.90
2009,08,01,17,19,29.90